Regional Weather Roundup
Issued by NWS Green Bay, WI

Current Version | Previous Version | Text Only | Print | Product List | Glossary On
Versions: 1 2 3 4 5 6 7 8 9 10 11 12 13 14 15 16 17 18 19 20 21 22 23 24 25 26 27 28 29 30 31 32 33 34 35 36 37 38 39 40 41 42 43 44 45 46 47 48 49 50
000
ASUS43 KGRB 170811
RWRGRB

NORTH-CENTRAL AND NORTHEAST WISCONSIN REGIONAL WEATHER ROUNDUP
NATIONAL WEATHER SERVICE GREEN BAY WI
200 AM CST SUN FEB 17 2019

WIZ005-009-010>012-018-019-170900-
NORTH CENTRAL WISCONSIN

CITY           SKY/WX    TMP DP  RH WIND       PRES   REMARKS
IRONWOOD       FAIR       6   4  91 E7        30.09S WCI  -6
MANITOWISH WTR NOT AVBL
ARBOR VITAE    FAIR      14  10  85 CALM      30.04S
EAGLE RIVER    FAIR       8   5  86 E5        30.04F WCI   0
LAND O LAKES   MOCLDY     5   2  86 CALM      30.07S
RHINELANDER    FAIR       9   5  84 E8        30.05R WCI  -3
PHILLIPS       MOCLDY     4   2  92 CALM      30.05R
ANTIGO         CLOUDY    11   8  85 E7        30.05S WCI   1
TOMAHAWK       CLOUDY     1  -2  87 CALM      30.06R
MERRILL        CLOUDY     5   2  86 CALM      30.08R
$$

WIZ013-073-170900-
NORTHEAST WISCONSIN

CITY           SKY/WX    TMP DP  RH WIND       PRES   REMARKS
IRON MOUNTAIN  FAIR      -1  -6  79 N5        30.08S WCI -11
MARINETTE      CLOUDY    16  10  77 NE9       30.13R WCI   4
OCONTO         CLOUDY    17  10  75 NE7       30.11R WCI   8
$$

WIZ017-030-035>037-045-170900-
CENTRAL WISCONSIN

CITY           SKY/WX    TMP DP  RH WIND       PRES   REMARKS
MEDFORD        CLOUDY    11   6  79 E5        30.05R WCI   3
WAUSAU         CLOUDY    13   7  77 E3        30.06R
MOSINEE        FLURRIES  14  10  85 NE3       30.07R
MARSHFIELD     CLOUDY    14   8  77 E6        30.04S WCI   5
WISC RAPIDS    CLOUDY    15   7  70 NE6       30.06S WCI   6
STEVENS POINT  CLOUDY    13   9  82 NE5       30.07S WCI   5
WAUPACA        CLOUDY    19  12  73 N7        30.08R
SHAWANO        CLOUDY    16  10  79 CALM      30.11R
CLINTONVILLE   CLOUDY    16  10  77 N5        30.10R WCI   8
WAUTOMA        CLOUDY    17  12  80 NE6       30.07R WCI   9
$$

WIZ038-039-048-051-170900-
FOX VALLEY

CITY           SKY/WX    TMP DP  RH WIND       PRES   REMARKS
NWS GREEN BAY  CLOUDY    17  11  77 N12       30.09R WCI   4
APPLETON       CLOUDY    19  10  68 NE8       30.05R WCI   9
OSHKOSH        CLOUDY    18  13  80 N9        30.05R WCI   7
FOND DU LAC    CLOUDY    21  16  81 NE10      30.04R WCI  10
$$

WIZ022-050-052-170900-
EAST CENTRAL WISCONSIN

CITY           SKY/WX    TMP DP  RH WIND       PRES   REMARKS
EPHRAIM        CLOUDY    14  10  83 N5        30.10R WCI   7
WASHINGTON ISL CLOUDY    14   8  78 NE7       30.12R WCI   4
STURGEON BAY   CLOUDY    19  14  81 CALM      30.09S
MANITOWOC      CLOUDY    25  18  74 E14       30.08R
SHEBOYGAN      FAIR      25  17  72 E10       30.05R
$$

LMZ563-521-522-541>543-170900-
LAKESHORE

STATION/POSITION TIME  TEMP    WIND        PRES    VSBY  WAVE
                       AIR SEA DIR/SP/G                  HT/PER
                 (UTC) (F)     (DEG/KT/KT) (MB)    (MI)  (FT/S)
SHEBOYGAN LKSHOR 0800   26     100/ 14/ 15 1018.5R
KEWAUNEE LKSHORE 0748   25      90/ 15/ 19 1017.8R
NORTHPORT PIER   0804   18      10/  3/  6 1020.0
MENOMINEE LKSHOR 0748   10 35   20/ 14/ 16 1019.6R
$$



USA.gov is the U.S. government's official web portal to all federal, state and local government web resources and services.